Weather Roundup
Issued by NWS

Home | Current Version | Previous Version | Graphics & Text | Print | Product List | Glossary Off
Versions: 1 2 3 4 5 6 7 8 9 10 11 12 13 14 15 16 17 18 19 20 21 22 23 24 25 26 27 28 29 30 31 32 33 34 35 36 37 38 39 40 41 42 43 44 45 46 47 48 49 50

359
NZUS93 KARX 092210
HRRWXR

CURRENT HOURLY OBSERVATIONS ACROSS
MUCH OF THE UPPER MISSISSIPPI VALLEY
NATIONAL WEATHER SERVICE LA CROSSE WI
400 PM CST FRI DEC 09 2016


...SOUTHEAST MINNESOTA...


CITY           SKY/WX    TMP DP  RH WIND       PRES   REMARKS
ROCHESTER      CLOUDY    14  10  84 W9        30.48R WCI   2
ROCHESTER/MAYO CLOUDY    17  11  78 SW7       30.49S WCI   8
WINONA         MOCLDY    21  12  68 W5        30.52S WCI  15
AUSTIN         CLEAR     18  10  73 W8        30.49S WCI   7
ALBERT LEA     PTCLDY    19  12  73 W6        30.48F WCI  11
DODGE CENTER   FLURRIES  16  10  79 W9        30.48S WCI   4
PRESTON        PTCLDY    15   9  78 W7        30.49R WCI   5
OWATONNA       FLURRIES  16   9  73 W7        30.49F WCI   6
FARIBAULT      FLURRIES  16  10  79 W7        30.50F WCI   6
$$

...ELSEWHERE IN MINNESOTA...


CITY           SKY/WX    TMP DP  RH WIND       PRES   REMARKS
MINNEAPOLIS    MOCLDY    16   5  62 W10       30.50S WCI   4
INTNL FALLS    CLOUDY     5  -5  63 W8        30.45S WCI  -8
DULUTH         LGT SNOW   9   0  67 NW10      30.42S WCI  -5
RED WING       PTCLDY    18   9  68 W9        30.50R WCI   6
REDWOOD FALLS  CLOUDY    11   2  67 NW8       30.52S WCI  -1
MANKATO        CLEAR     14   8  77 NW9       30.51S WCI   2
WORTHINGTON    FLURRIES  14   7  73 W5        30.48R WCI   6
FAIRMONT       FLURRIES  16   9  74 NW5       30.51S WCI   9
$$

...SOUTHWEST WISCONSIN...


CITY           SKY/WX    TMP DP  RH WIND       PRES   REMARKS
LA CROSSE      PTCLDY    22  10  60 NW10      30.51R WCI  11
PRAIRIE DU CHI CLEAR     20  11  66 SW8       30.53R WCI  11
BOSCOBEL       CLEAR     23  10  57 W7        30.52R WCI  15
LONE ROCK      PTCLDY    24  11  57 W8        30.50S WCI  15
PLATTEVILLE    CLEAR     21  13  71 W6        30.50R WCI  13
FORT MC COY    CLEAR     22  11  63 W7        30.49R WCI  13
CAMP DOUGLAS   CLEAR     22   9  58 W5        30.47S WCI  15
MAUSTON-NEW LI CLEAR     23  10  56 W6        30.46S WCI  15
VIROQUA        FAIR      18   9  69 W6        30.46S WCI  10
WIS DELLS      CLEAR     23   8  53 NW5       30.46S WCI  16
$$

...ELSEWHERE IN WISCONSIN...


CITY           SKY/WX    TMP DP  RH WIND       PRES   REMARKS
MILWAUKEE      PTCLDY    25   6  44 NW12      30.47R WCI  14
MADISON        PTCLDY    22   8  55 W6        30.48S WCI  14
GREEN BAY      CLOUDY    26   9  48 W14       30.43R WCI  14
EAU CLAIRE     PTCLDY    16   9  74 W8        30.47S WCI   5
BLACK RVR FLS  FAIR      20   9  63 W7        30.49R WCI  11
MEDFORD        CLOUDY    15   9  74 W8        30.40S WCI   5
WAUSAU         CLOUDY    17   8  67 W9        30.42R WCI   6
WIS RAPIDS     PTCLDY    19   8  62 NW7       30.46S WCI  10
MARSHFIELD     CLOUDY    18   9  68 W12       30.42S WCI   5
RICE LAKE      CLOUDY    17   9  68 W7        30.46S WCI   8
$$

...NORTHEAST IOWA...


CITY           SKY/WX    TMP DP  RH WIND       PRES   REMARKS
WATERLOO       PTCLDY    19  11  70 NW6       30.53S WCI  11
DUBUQUE        CLEAR     16  10  77 W5        30.51S WCI   9
DECORAH        CLEAR     16  10  79 W7G13     30.49S WCI   6
MASON CITY     CLOUDY    20   9  62 W8        30.52R WCI  10
CHARLES CITY   MOCLDY    18  12  79 W3        30.51F
OELWEIN        CLEAR     18  12  79 W6        30.52S WCI   9
$$

...ELSEWHERE IN IOWA...


CITY           SKY/WX    TMP DP  RH WIND       PRES   REMARKS
DES MOINES     CLOUDY    23   9  55 VRB3      30.54F
IOWA CITY      PTCLDY    21  12  68 W8        30.58R WCI  11
FORT DODGE     CLOUDY    19   9  63 W6        30.53S WCI  11
MARSHALLTOWN   CLEAR     21  12  68 W8        30.53S WCI  11
CEDAR RAPIDS   CLEAR     18  13  80 NW6       30.54R WCI  10
$$

...NORTHERN ILLINOIS...


CITY           SKY/WX    TMP DP  RH WIND       PRES   REMARKS
CHICAGO-OHARE  MOCLDY    23  12  62 W9        30.49S WCI  13
CHICAGO-MIDWAY MOCLDY    24  11  57 W10       30.51S WCI  14
MOLINE         PTCLDY    22  11  62 W8        30.55S WCI  12
ROCKFORD       PTCLDY    22  12  65 W8        30.53R WCI  12
PEORIA         MOCLDY    24  12  60 W6        30.56R WCI  17
$$

NOTE: "FAIR" INDICATES FEW OR NO CLOUDS BELOW 12,000 FEET WITH NO
SIGNIFICANT WEATHER AND/OR OBSTRUCTIONS TO VISIBILITY. WIND
SPEEDS ARE IN MILES-PER-HOUR.




USA.gov is the U.S. government's official web portal to all federal, state and local government web resources and services.